When you browse on this site, cookies collect data to enhance your experience and personalize the content and advertising you see.
Visit our Privacy Policy to learn more. By continuing to use the site, you agree to this use of cookies and data.
  • In Hungary
  • List of Countries
  • For 7 days
  • Water Temperature
  • Weather Map
  • News
  • Weather Widgets
  • user-avatar
    Login

    Hourly Weather Volkermarkt

    Today, 8 April, Wednesday

    Time Temperature Precipitation Wind Pressure Humidity
    00:00 +5°C° 0 mm 0 mps 733 mmHg 59%
    01:00 +5°C° 0 mm 0 mps 733 mmHg 59%
    02:00 +4°C° 0 mm 0 mps 733 mmHg 59%
    03:00 +4°C° 0 mm 0 mps 732 mmHg 58%
    04:00 +4°C° 0 mm 0 mps 732 mmHg 58%
    05:00 +5°C° 0 mm 0 mps 732 mmHg 55%
    06:00 +6°C° 0 mm 0 mps 732 mmHg 52%
    07:00 +7°C° 0 mm 0 mps 732 mmHg 49%
    08:00 +10°C° 0 mm 0 mps 732 mmHg 43%
    09:00 +13°C° 0 mm 1 mps 732 mmHg 37%
    10:00 +16°C° 0 mm 1 mps 732 mmHg 31%
    11:00 +18°C° 0 mm 1 mps 731 mmHg 30%
    12:00 +19°C° 0 mm 1 mps 731 mmHg 28%
    13:00 +20°C° 0 mm 1 mps 731 mmHg 27%
    14:00 +19°C° 0 mm 1 mps 730 mmHg 29%
    15:00 +19°C° 0 mm 1 mps 730 mmHg 31%
    16:00 +19°C° 0 mm 1 mps 729 mmHg 33%
    17:00 +15°C° 0 mm 1 mps 729 mmHg 41%
    18:00 +13°C° 0 mm 1 mps 729 mmHg 50%
    19:00 +10°C° 0 mm 1 mps 729 mmHg 58%
    20:00 +9°C° 0 mm 1 mps 729 mmHg 60%
    21:00 +9°C° 0 mm 1 mps 729 mmHg 62%
    22:00 +8°C° 0 mm 1 mps 729 mmHg 64%
    23:00 +8°C° 0 mm 1 mps 729 mmHg 65%

    Tomorrow, 9 April, Thursday

    Time Temperature Precipitation Wind Pressure Humidity
    00:00 +6°C° 0 mm 0 mps 729 mmHg 66%
    01:00 +6°C° 0 mm 0 mps 729 mmHg 67%
    02:00 +5°C° 0 mm 0 mps 728 mmHg 68%
    03:00 +6°C° 0 mm 1 mps 728 mmHg 69%
    04:00 +6°C° 0 mm 1 mps 728 mmHg 70%
    05:00 +7°C° 0 mm 1 mps 728 mmHg 67%
    06:00 +8°C° 0 mm 1 mps 728 mmHg 64%
    07:00 +8°C° 0 mm 0 mps 728 mmHg 60%
    08:00 +12°C° 0 mm 1 mps 728 mmHg 53%
    09:00 +15°C° 0 mm 1 mps 728 mmHg 46%
    10:00 +19°C° 0 mm 1 mps 728 mmHg 39%
    11:00 +20°C° 0 mm 1 mps 728 mmHg 36%
    12:00 +22°C° 0 mm 1 mps 728 mmHg 34%
    13:00 +23°C° 0 mm 1 mps 728 mmHg 31%
    14:00 +23°C° 0 mm 1 mps 727 mmHg 32%
    15:00 +22°C° 0 mm 1 mps 727 mmHg 34%
    16:00 +22°C° 0 mm 1 mps 727 mmHg 35%
    17:00 +20°C° 0 mm 1 mps 727 mmHg 43%
    18:00 +16°C° 0 mm 1 mps 727 mmHg 51%
    19:00 +14°C° 0 mm 1 mps 727 mmHg 58%
    20:00 +13°C° 0 mm 1 mps 727 mmHg 60%
    21:00 +13°C° 0 mm 1 mps 728 mmHg 61%
    22:00 +13°C° 0 mm 1 mps 728 mmHg 62%
    23:00 +12°C° 0 mm 1 mps 728 mmHg 64%

    Day after tomorrow, 10 April, Friday

    Time Temperature Precipitation Wind Pressure Humidity
    00:00 +12°C° 0 mm 1 mps 728 mmHg 66%
    01:00 +12°C° 0 mm 1 mps 728 mmHg 68%
    02:00 +10°C° 0 mm 0 mps 728 mmHg 70%
    03:00 +10°C° 0 mm 0 mps 728 mmHg 72%
    04:00 +10°C° 0 mm 0 mps 728 mmHg 74%
    05:00 +10°C° 0 mm 0 mps 728 mmHg 73%
    06:00 +11°C° 0 mm 0 mps 728 mmHg 72%
    07:00 +12°C° 0 mm 0 mps 729 mmHg 70%
    08:00 +14°C° 0 mm 0 mps 729 mmHg 64%
    09:00 +16°C° 0 mm 0 mps 729 mmHg 57%
    10:00 +20°C° 0 mm 1 mps 729 mmHg 51%
    11:00 +21°C° 0 mm 1 mps 729 mmHg 49%
    12:00 +21°C° 0 mm 1 mps 729 mmHg 47%
    13:00 +22°C° 0 mm 1 mps 728 mmHg 44%
    14:00 +21°C° 0 mm 1 mps 728 mmHg 46%
    15:00 +21°C° 0 mm 1 mps 728 mmHg 48%
    16:00 +21°C° 0 mm 1 mps 727 mmHg 49%
    17:00 +19°C° 0 mm 1 mps 727 mmHg 57%
    18:00 +16°C° 0 mm 1 mps 727 mmHg 65%
    19:00 +14°C° 0 mm 1 mps 727 mmHg 74%
    20:00 +14°C° 0 mm 1 mps 727 mmHg 76%
    21:00 +13°C° 0 mm 1 mps 727 mmHg 78%
    22:00 +13°C° 0 mm 1 mps 728 mmHg 81%
    23:00 +13°C° 0 mm 1 mps 728 mmHg 82%

    11 April, Saturday

    Time Temperature Precipitation Wind Pressure Humidity
    00:00 +11°C° 0 mm 0 mps 728 mmHg 84%
    01:00 +11°C° 0 mm 0 mps 727 mmHg 85%
    02:00 +10°C° 0 mm 0 mps 728 mmHg 88%
    03:00 +10°C° 0 mm 0 mps 728 mmHg 90%
    04:00 +9°C° 0 mm 0 mps 728 mmHg 92%
    05:00 +10°C° 0 mm 0 mps 728 mmHg 89%
    06:00 +11°C° 0 mm 0 mps 728 mmHg 86%
    07:00 +12°C° 0 mm 0 mps 728 mmHg 83%
    08:00 +14°C° 0 mm 0 mps 728 mmHg 76%
    09:00 +16°C° 0 mm 0 mps 728 mmHg 68%
    10:00 +20°C° 0 mm 1 mps 728 mmHg 61%
    11:00 +20°C° 0.1 mm 1 mps 728 mmHg 59%
    12:00 +20°C° 0.1 mm 1 mps 728 mmHg 58%
    13:00 +21°C° 0.1 mm 1 mps 728 mmHg 57%
    14:00 +20°C° 0.2 mm 1 mps 727 mmHg 59%
    15:00 +19°C° 0.2 mm 2 mps 727 mmHg 60%
    16:00 +19°C° 0.2 mm 2 mps 727 mmHg 62%
    17:00 +17°C° 0.1 mm 2 mps 726 mmHg 70%
    18:00 +15°C° 0.1 mm 1 mps 726 mmHg 78%
    19:00 +13°C° 0.1 mm 1 mps 726 mmHg 86%
    20:00 +13°C° 0 mm 1 mps 727 mmHg 85%
    21:00 +13°C° 0 mm 1 mps 727 mmHg 84%
    22:00 +13°C° 0 mm 1 mps 727 mmHg 84%
    23:00 +12°C° 0 mm 0 mps 727 mmHg 85%

    12 April, Sunday

    Time Temperature Precipitation Wind Pressure Humidity
    00:00 +11°C° 0 mm 0 mps 727 mmHg 87%
    01:00 +11°C° 0 mm 0 mps 727 mmHg 89%
    02:00 +10°C° 0 mm 0 mps 726 mmHg 90%
    03:00 +10°C° 0 mm 0 mps 726 mmHg 91%
    04:00 +9°C° 0 mm 0 mps 725 mmHg 92%
    05:00 +10°C° 0 mm 0 mps 725 mmHg 89%
    06:00 +11°C° 0 mm 0 mps 726 mmHg 87%
    07:00 +12°C° 0 mm 0 mps 726 mmHg 84%
    08:00 +14°C° 0 mm 0 mps 725 mmHg 76%
    09:00 +16°C° 0 mm 0 mps 725 mmHg 69%
    10:00 +20°C° 0 mm 1 mps 725 mmHg 61%
    11:00 +20°C° 0 mm 1 mps 724 mmHg 58%
    12:00 +21°C° 0 mm 1 mps 724 mmHg 55%
    13:00 +22°C° 0 mm 1 mps 724 mmHg 52%
    14:00 +20°C° 0.1 mm 2 mps 723 mmHg 52%
    15:00 +20°C° 0.1 mm 2 mps 722 mmHg 53%
    16:00 +20°C° 0.1 mm 2 mps 722 mmHg 53%
    17:00 +18°C° 0.1 mm 2 mps 721 mmHg 60%
    18:00 +16°C° 0.1 mm 2 mps 721 mmHg 67%
    19:00 +13°C° 0.1 mm 1 mps 720 mmHg 73%
    20:00 +13°C° 0 mm 1 mps 720 mmHg 74%
    21:00 +12°C° 0 mm 1 mps 720 mmHg 75%
    22:00 +11°C° 0 mm 1 mps 720 mmHg 75%
    23:00 +11°C° 0 mm 1 mps 720 mmHg 77%

    13 April, Monday

    Time Temperature Precipitation Wind Pressure Humidity
    00:00 +10°C° 0 mm 1 mps 720 mmHg 79%
    01:00 +10°C° 0 mm 1 mps 720 mmHg 81%
    02:00 +9°C° 0 mm 1 mps 720 mmHg 83%
    03:00 +9°C° 0 mm 1 mps 719 mmHg 86%
    04:00 +9°C° 0 mm 1 mps 719 mmHg 88%
    05:00 +10°C° 0 mm 1 mps 719 mmHg 85%
    06:00 +11°C° 0 mm 1 mps 720 mmHg 82%
    07:00 +12°C° 0 mm 1 mps 720 mmHg 79%
    08:00 +14°C° 0 mm 1 mps 720 mmHg 70%
    09:00 +16°C° 0 mm 1 mps 720 mmHg 62%
    10:00 +19°C° 0 mm 1 mps 720 mmHg 53%
    11:00 +19°C° 0.1 mm 2 mps 720 mmHg 50%
    12:00 +19°C° 0.1 mm 2 mps 720 mmHg 47%
    13:00 +20°C° 0.1 mm 3 mps 719 mmHg 43%
    14:00 +19°C° 0 mm 3 mps 719 mmHg 41%
    15:00 +19°C° 0 mm 3 mps 718 mmHg 38%
    16:00 +18°C° 0 mm 3 mps 718 mmHg 36%
    17:00 +16°C° 0 mm 3 mps 718 mmHg 43%
    18:00 +14°C° 0 mm 2 mps 717 mmHg 51%
    19:00 +11°C° 0 mm 1 mps 717 mmHg 58%
    20:00 +11°C° 0.1 mm 1 mps 717 mmHg 62%
    21:00 +10°C° 0.1 mm 1 mps 717 mmHg 66%
    22:00 +10°C° 0.1 mm 1 mps 717 mmHg 70%
    23:00 +10°C° 0.1 mm 1 mps 717 mmHg 73%
    Show more